Simultaneous Nadir Overpasses (SNOs) Predictions

Prediction of SNOs between GOES-16 and AQUA Satellite Orbit:

Table of predicted SNOs for the next 14.0 days since TLE Epoch: 1/23/2022
Index Date Time (GOES-16) GOES-16 Lat,Lon AQUA Lat,Lon Distance(km) Time Diff (sec)
1 01/24/2022 18:23:53 0.06, -75.21 0.81, -71.65 404.47 80
2 01/25/2022 06:45:09 -0.06, -75.20 0.25, -76.81 182.13 80
3 01/27/2022 06:30:16 -0.05, -75.21 -0.34, -73.84 156.84 80
4 01/27/2022 18:51:39 0.05, -75.22 -0.74, -79.03 432.02 80
5 01/29/2022 06:18:03 -0.04, -75.23 -0.95, -70.86 495.96 80
6 01/29/2022 18:39:26 0.04, -75.24 -0.13, -76.06 92.74 80
7 01/31/2022 18:29:53 0.04, -75.26 0.49, -73.09 247.02 80
8 02/01/2022 06:51:09 -0.04, -75.26 0.57, -78.25 338.84 80
9 02/03/2022 06:36:16 -0.04, -75.29 -0.06, -75.28 3.01 80
10 02/05/2022 06:24:03 -0.04, -75.33 -0.70, -72.31 344.10 80
11 02/05/2022 18:45:26 0.03, -75.35 -0.43, -77.49 244.05 80
